World > North America > United States > New Jersey

Madison, New Jersey Regional Weather

Lat: 40.76N, Lon: 74.42W
Wx Zone: NJZ008
Warning FLW WEATHER ALERT - FLASH FLOOD WATCH (More Info. Click Here) Warning
Feedback

Madison, NJ Regional Weather

Expires:201907220900;;446433
ASUS41 KOKX 220814
RWROKX

Regional Weather Roundup
National Weather Service New York NY
400 AM EDT MON JUL 22 2019

Note: "FAIR" indicates few or no clouds below 12,000 feet with no
significant weather and/or obstructions to visibility.


NJZ001-105-106-008-010-013-015-019>022-104-220900-
New Jersey
  
CITY           SKY/WX    TMP DP  RH WIND       PRES   REMARKS
Newark/Liberty CLOUDY    81  70  69 W8        29.84R                  
Teterboro      FAIR      80  68  66 W3        29.83R                  
Caldwell       FAIR      78  73  84 W3        29.86R                  
Somerville     FAIR      73  72  96 CALM      29.83F                  
Linden         FAIR      77  71  81 CALM      29.85R                  
Perth Amboy      N/A     75 N/A N/A W6          N/A                   
Sussex         FAIR      72  70  93 W3        29.85S                  
Andover          N/A     72  71  97 CALM      29.86S                  
Trenton        FAIR      72  71  97 E3        29.84F                  
Millville      FAIR      75  72  90 CALM      29.85F                  
Atlantic City  FAIR      79  72  79 CALM      29.85F                  
Wrightstown    CLEAR     73  73 100 S3        29.83F                  
Toms River     CLOUDY    77  32  19 CALM      29.86S THUNDER          
Belmar         FAIR      75  72  88 W3        29.86S                  
$$
 

SKY/WX - Weather  TMP - Temperature  DP - Dew Point  RH - Relative Humidity
WIND - Wind Direction/Speed PRES - Barometric Pressure VSB - Visibility
WCI - Wind Chill Index E13G22 Wind - East Wind 13 mph/Gusts of 22 mph